#timestamp,LO_Frequency,Hit,StdDev 
1622811615.3,286046998.5,N
1622811635.2,286047000.7,N
1622811655.0,286047001.2,N
1622811655.9,286047001.2,N
1622811675.8,286046998.1,N
1622811695.6,286046998.2,N
1622811715.4,286046998.2,N
1622811735.3,286046999.5,N
1622811755.1,286047009.2,Y
1622811775.8,286047009.0,P
1622811795.7,286047006.3,N
1622811815.5,286047006.6,N
1622811835.4,286047007.4,N
1622811855.2,286047007.6,N
1622811875.0,286047007.6,N
1622811875.9,286047007.6,N
1622811895.8,286047004.9,N
1622811915.6,286047006.0,N
1622811935.4,286047001.9,N
1622811955.3,286047002.6,N
1622811975.1,286047001.9,N
1622811995.9,286047004.0,N
1622812015.7,286047002.6,N
1622812035.5,286046999.8,N
1622812055.4,286047000.4,N
1622812075.2,286047002.4,N
1622812095.0,286047000.1,N
1622812095.9,286047000.1,N
1622812115.8,286047000.8,N
1622812135.6,286047000.6,N
1622812155.5,286046998.9,N
1622812175.3,286046999.3,N
1622812195.1,286046998.6,N
1622812215.9,286046998.1,N
1622812235.7,286047000.4,N
1622812255.5,286046999.9,N
1622812275.4,286047000.6,N
1622812295.2,286047000.9,N
1622812315.1,286047000.9,N
1622812316.0,286047000.9,N
1622812335.8,286047000.3,N
1622812355.6,286047000.4,N
1622812375.5,286046999.3,N
1622812395.3,286046998.8,N
1622812415.2,286046998.9,N
1622812435.9,286047001.0,N
1622812455.7,286046998.6,N
1622812475.6,286046998.2,N
1622812495.4,286047000.5,N
1622812515.2,286047000.2,N
1622812535.1,286047001.0,N
1622812536.0,286047001.0,N
1622812555.8,286047001.0,N
1622812575.7,286047000.2,N
1622812595.5,286047000.0,N
1622812615.3,286046999.8,N
1622812635.2,286047002.7,N
1622812655.0,286047000.5,N
1622812655.9,286047000.5,N
1622812675.8,286047000.6,N
1622812695.6,286047000.6,N
1622812715.4,286047000.4,N
1622812735.3,286046999.7,N
1622812755.1,286047002.3,N
1622812775.9,286047002.2,N
1622812795.7,286047001.9,N
1622812815.5,286047001.5,N
1622812835.4,286047004.3,Y
1622812855.2,286047002.6,P
1622812875.1,286047002.8,N
1622812876.0,286047002.8,N
1622812895.8,286047001.0,N
1622812915.7,286047000.8,N
1622812935.9,286046998.9,N
1622812955.7,286046998.5,N
1622812975.6,286046998.4,N
1622812995.4,286046998.7,N
1622813015.2,286046999.0,N
1622813035.1,286046999.4,N
1622813055.9,286046999.2,N
1622813075.7,286046999.3,N
1622813095.6,286046999.1,N
1622813115.4,286046997.0,N
1622813135.2,286046999.0,N
1622813155.1,286046998.8,N
1622813156.0,286046998.8,N
1622813175.8,286046999.3,N
1622813195.7,286046998.9,N
1622813215.5,286047001.2,N
1622813235.4,286047000.8,N
1622813255.2,286047001.2,N
1622813275.0,286047000.3,N
1622813275.9,286047000.3,N
1622813295.8,286047001.0,N
1622813315.6,286046998.2,N
1622813335.5,286046998.1,N
1622813355.3,286046998.4,N
1622813375.1,286046999.3,N
1622813395.9,286046998.8,N
1622813415.7,286046998.5,N
1622813435.5,286046998.8,N
1622813455.4,286046996.9,Y
1622813475.2,286046999.6,P
1622813495.1,286046999.4,P
1622813496.0,286046999.4,P
1622813515.8,286047000.9,Y
1622813535.7,286047000.2,P
1622813555.5,286046999.8,N
1622813575.3,286047002.5,P
1622813595.2,286047002.7,N
1622813615.0,286047000.6,N
1622813615.9,286047000.6,N
1622813635.7,286046998.3,N
1622813655.6,286047000.5,N
1622813675.4,286047001.2,N
1622813695.3,286047000.9,N
1622813715.1,286047000.2,N
1622813735.8,286047000.2,N
1622813755.7,286047000.6,N
1622813775.5,286047001.2,N
1622813795.4,286047001.1,N
1622813815.2,286047001.0,N
1622813835.0,286046998.6,N
1622813835.9,286046998.6,N
1622813855.8,286046998.7,N
1622813875.6,286047000.8,N
1622813895.5,286047000.4,N
1622813915.3,286047000.9,N
1622813935.1,286047000.2,N
1622813955.9,286047000.2,N
1622813975.7,286047000.7,N
1622813995.5,286046999.9,N
1622814015.4,286047000.3,N
1622814035.2,286047000.7,N
1622814055.1,286047000.7,N
1622814056.0,286047000.7,N
1622814075.8,286047000.7,N
1622814095.6,286046998.4,N
1622814115.5,286046996.7,Y
1622814135.3,286046996.9,P
1622814155.2,286046997.8,N
1622814175.9,286046994.9,P
1622814195.7,286046997.6,N
1622814215.6,286046997.3,N
1622814235.4,286046997.1,N
1622814255.3,286046996.8,N
1622814275.1,286046997.1,N
1622814276.0,286046997.1,N
1622814295.8,286046997.0,N
1622814315.7,286046999.3,N
1622814335.5,286046999.6,N
1622814355.3,286046999.5,N
1622814375.2,286047000.8,N
1622814395.0,286047001.2,N
1622814395.9,286047001.2,N
1622814415.8,286046999.3,N
1622814435.6,286046999.6,N
1622814455.4,286046999.5,N
1622814475.3,286046997.3,N
1622814495.1,286046996.8,N
1622814515.9,286046997.7,N
1622814535.7,286046994.9,Y
1622814555.5,286046996.6,P
1622814575.4,286046998.7,N
1622814595.2,286046999.2,N
1622814615.0,286046999.4,N
1622814616.0,286046999.4,N
1622814635.8,286046996.5,Y
1622814655.6,286046999.8,P
1622814675.5,286047004.0,P
1622814695.3,286047002.4,N
1622814715.1,286047002.5,N
1622814735.9,286047002.7,N
1622814755.7,286046999.9,N
1622814775.6,286047001.0,N
1622814795.4,286046998.8,N
1622814815.2,286047001.0,N
1622814835.1,286047011.9,Y
1622814836.0,286046999.3,P
1622814855.8,286046994.9,P
1622814875.6,286046995.5,N
1622814895.5,286046997.6,N
1622814915.3,286046995.3,N
1622814935.2,286046996.1,N
1622814955.9,286046993.5,Y
1622814975.7,286046997.6,P
1622814995.6,286046996.8,P
1622815015.4,286046997.7,P
1622815035.3,286046995.5,Y
1622815055.1,286046999.1,P
1622815056.0,286046999.1,N
1622815075.8,286046999.3,N
1622815095.7,286046996.9,Y
1622815115.5,286047000.8,P
1622815135.3,286046998.1,N
1622815155.2,286046998.6,N
1622815175.0,286047000.5,N
1622815175.9,286047000.5,N
1622815195.8,286047002.8,N
